Weather History for Laramie, WY

Change the Weather History Date:

Friday, November 30, 2012

  Actual Average Record
Temperature  
Mean Temperature 44 °F 23 °F  
Max Temperature 54 °F 34 °F 61 °F (1999)
Min Temperature 33 °F 12 °F -23 °F (1983)
Degree Days  
Heating Degree Days 21 42  
Month to date heating degree days 802 1070  
Since 1 July heating degree days 1867 2312  
Cooling Degree Days 0 0  
Month to date cooling degree days 0 0  
Year to date cooling degree days 211 67  
Moisture  
Dew Point 22 °F    
Average Humidity 45    
Maximum Humidity 61    
Minimum Humidity 28    
Precipitation  
Precipitation 0.00 in 0.01 in 0.12 in (1986)
Month to date precipitation 0.16 0.54  
Year to date precipitation 6.06 10.60  
Sea Level Pressure  
Sea Level Pressure 29.85 in    
Wind  
Wind Speed 16 mph (SW)    
Max Wind Speed 33 mph    
Max Gust Speed 41 mph    
Visibility 10 miles    
Events      
T = Trace of Precipitation, MM = Missing Value Source: NWS Daily Summary

Daily Weather History Graph

Daily Weather History Graph

Search for Another Location

Airport:

Trip Planner

Search our weather history database for the weather conditions in past years. The results will help you decide how hot, cold, wet, or windy it might be!

Date:

Astronomy

Nov. 30, 2012 Rise Set
Actual Time 7:08 AM MST 4:34 PM MST
Civil Twilight 6:37 AM MST 5:05 PM MST
Nautical Twilight 6:03 AM MST 5:39 PM MST
Astronomical Twilight 5:30 AM MST 6:12 PM MST
Moon 6:31 PM MST (11/30) 8:42 AM MST (11/30)
Length of Visible Light 10h 27m
Length of Day
9h 25m
Waning Gibbous, 96% of the Moon is Illuminated
Nov 30
Waning Gibbous
Dec 6
Last Quarter
Dec 13
New
Dec 19
First Quarter
Dec 28
Full

Hourly Weather History & Observations

Time (MST) Temp. Windchill Dew Point Humidity Pressure Visibility Wind Dir Wind Speed Gust Speed Precip Events Conditions
12:53 AM 37.9 °F 29.2 °F 21.9 °F 53% 29.94 in 10.0 mi SSW 15.0 mph - N/A   Clear
1:53 AM 39.0 °F 31.4 °F 21.9 °F 50% 29.94 in 10.0 mi SSW 12.7 mph - N/A   Mostly Cloudy
2:53 AM 37.9 °F 34.4 °F 23.0 °F 55% 29.94 in 10.0 mi SSE 4.6 mph - N/A   Scattered Clouds
3:53 AM 39.0 °F 30.3 °F 21.9 °F 50% 29.93 in 10.0 mi SW 16.1 mph - N/A   Overcast
4:53 AM 39.0 °F 30.3 °F 21.9 °F 50% 29.95 in 10.0 mi SW 16.1 mph 20.7 mph N/A   Mostly Cloudy
5:53 AM 36.0 °F 26.0 °F 21.9 °F 57% 29.96 in 10.0 mi SW 17.3 mph - N/A   Clear
6:53 AM 34.0 °F 24.2 °F 21.9 °F 61% 29.99 in 10.0 mi SSW 15.0 mph - N/A   Clear
7:53 AM 35.1 °F 27.4 °F 23.0 °F 61% 29.99 in 10.0 mi SSE 10.4 mph - N/A   Clear
8:53 AM 41.0 °F 33.9 °F 23.0 °F 49% 29.97 in 10.0 mi South 12.7 mph 19.6 mph N/A   Clear
9:53 AM 45.0 °F 38.9 °F 24.1 °F 44% 29.92 in 10.0 mi SSW 12.7 mph - N/A   Clear
10:53 AM 46.0 °F 39.9 °F 24.1 °F 42% 29.91 in 10.0 mi WSW 13.8 mph - N/A   Clear
11:53 AM 46.9 °F - 24.1 °F 41% 29.83 in 10.0 mi SW 19.6 mph - N/A   Clear
12:53 PM 51.1 °F - 24.1 °F 35% 29.80 in 10.0 mi SW 21.9 mph 27.6 mph N/A   Clear
1:53 PM 52.0 °F - 23.0 °F 32% 29.75 in 10.0 mi WSW 21.9 mph 29.9 mph N/A   Clear
2:53 PM 53.1 °F - 21.0 °F 29% 29.75 in 10.0 mi WSW 16.1 mph - N/A   Clear
3:53 PM 50.0 °F - 21.0 °F 32% 29.74 in 10.0 mi SW 16.1 mph 27.6 mph N/A   Clear
4:53 PM 46.0 °F 38.0 °F 21.0 °F 37% 29.77 in 10.0 mi SW 21.9 mph - N/A   Clear
5:53 PM 46.0 °F 37.6 °F 19.9 °F 35% 29.77 in 10.0 mi WSW 24.2 mph - N/A   Clear
6:53 PM 45.0 °F 37.9 °F 19.9 °F 37% 29.79 in 10.0 mi WSW 16.1 mph - N/A   Clear
7:53 PM 46.9 °F - 19.9 °F 34% 29.76 in 10.0 mi SW 25.3 mph 40.3 mph N/A   Clear
8:53 PM 45.0 °F 36.9 °F 19.9 °F 37% 29.74 in 10.0 mi SW 20.7 mph - N/A   Clear
9:53 PM 43.0 °F 35.1 °F 19.9 °F 40% 29.76 in 10.0 mi WSW 17.3 mph - N/A   Clear
10:53 PM 42.1 °F 34.2 °F 21.0 °F 43% 29.76 in 10.0 mi WSW 16.1 mph - N/A   Clear